Location: ???????
(55.4362°N, 38.1183°E)
Time: 22:23:36
(UTC+00:00)

N. Korean satellite - Pass Details

Date: 07 October 2021
Orbit: 450 x 495 km, 97.3° (Epoch: 21 October)

Event Time Altitude Azimuth Distance (km) Brightness Sun altitude
Rises 02:32:28 0° 18° (NNE) 2,564 10.6 -10.6°
Reaches altitude 10° 02:34:36 10° 25° (NNE) 1,686 9.7 -10.3°
Maximum altitude 02:38:06 44° 99° (E) 688 7.9 -9.9°
Drops below altitude 10° 02:41:36 10° 173° (S) 1,689 9.4 -9.4°
Sets 02:43:44 0° 180° (S) 2,570 10.2 -9.1°
